Regional Weather Roundup
Issued by NWS Goodland, KS

Home | Current Version | Previous Version | Text Only | Print | Product List | Glossary On
Versions: 1 2 3 4 5 6 7 8 9 10 11 12 13 14 15 16 17 18 19 20 21 22 23 24 25 26 27 28 29 30 31 32 33 34 35 36 37 38 39 40 41 42 43 44 45 46 47 48 49 50
000
ASUS43 KGLD 181108
RWRGLD

GOODLAND FORECAST AREA HOURLY WEATHER ROUNDUP
NATIONAL WEATHER SERVICE GOODLAND KS
500 AM MDT WED OCT 18 2017

...OFFICIAL OBSERVATIONS...

CITY           SKY/WX    TMP DP  RH WIND       PRES   REMARKS
GOODLAND KS    CLOUDY    50  35  56 W10       29.96S
HILL CITY KS   CLOUDY    46  41  82 CALM      29.93F
IMPERIAL NEB   CLOUDY    43  29  57 W3        29.94S
MCCOOK NEB     PTCLDY    47  37  68 W10       29.92R
AKRON CO       CLOUDY    49  24  37 W18       30.02R
BURLINGTON CO  CLOUDY    48  32  53 W9        30.01S
LIMON CO       CLOUDY    34  28  79 N9        30.08S
$$

...UNOFFICIAL OBSERVATIONS...

CITY           SKY/WX    TMP DP  RH WIND       PRES   REMARKS
NORTON KS      CLEAR     41  36  81 SW3       29.91S
SHARON SPRINGS   N/A     45  36  70 W5          N/A
TRENTON NEB      N/A     48  32  54 W5          N/A
KIT CARSON CO    N/A     48  31  53 CALM        N/A
YUMA CO        FAIR      43  28  56 W9        29.99R
$$




USA.gov is the U.S. government's official web portal to all federal, state and local government web resources and services.